TimeCDT,TemperatureF,Dew PointF,Humidity,Sea Level PressureIn,VisibilityMPH,Wind Direction,Wind SpeedMPH,Gust SpeedMPH,PrecipitationIn,Events,Conditions,WindDirDegrees,DateUTC
12:15 AM,57.2,16.9,21,29.96,10.0,SE,15.0,20.7,N/A,,Clear,130,2013-04-06 05:15:00
12:35 AM,56.8,18.1,22,29.96,10.0,SE,13.8,18.4,N/A,,Clear,130,2013-04-06 05:35:00
12:55 AM,56.7,18.5,23,29.96,10.0,SE,13.8,-,N/A,,Clear,140,2013-04-06 05:55:00
1:15 AM,56.3,18.7,23,29.95,10.0,SE,13.8,-,N/A,,Clear,130,2013-04-06 06:15:00
1:35 AM,55.6,18.9,24,29.95,10.0,SE,16.1,20.7,N/A,,Clear,130,2013-04-06 06:35:00
1:55 AM,54.7,19.8,26,29.94,10.0,SE,15.0,-,N/A,,Clear,130,2013-04-06 06:55:00
2:15 AM,54.1,20.5,27,29.93,10.0,SE,15.0,-,N/A,,Clear,130,2013-04-06 07:15:00
2:35 AM,53.6,21.2,28,29.92,10.0,SE,16.1,20.7,N/A,,Clear,140,2013-04-06 07:35:00
2:55 AM,53.2,21.7,29,29.92,10.0,SE,16.1,20.7,N/A,,Clear,140,2013-04-06 07:55:00
3:15 AM,53.1,22.6,31,29.92,10.0,SE,12.7,-,N/A,,Clear,140,2013-04-06 08:15:00
3:35 AM,52.9,23.5,32,29.90,10.0,SE,16.1,-,N/A,,Clear,140,2013-04-06 08:35:00
3:55 AM,52.9,24.4,33,29.90,10.0,SE,12.7,21.9,N/A,,Clear,140,2013-04-06 08:55:00
4:15 AM,53.1,24.8,33,29.89,10.0,SE,15.0,-,N/A,,Clear,140,2013-04-06 09:15:00
4:35 AM,53.1,26.1,35,29.90,10.0,SE,13.8,19.6,N/A,,Scattered Clouds,140,2013-04-06 09:35:00
4:55 AM,53.6,27.5,37,29.88,10.0,SE,16.1,-,N/A,,Mostly Cloudy,140,2013-04-06 09:55:00
5:15 AM,54.1,28.6,37,29.88,10.0,SSE,17.3,23.0,N/A,,Scattered Clouds,150,2013-04-06 10:15:00
5:35 AM,54.5,30.0,39,29.87,10.0,SSE,11.5,-,N/A,,Mostly Cloudy,150,2013-04-06 10:35:00
5:55 AM,54.7,30.6,40,29.86,10.0,SSE,16.1,-,N/A,,Scattered Clouds,150,2013-04-06 10:55:00
6:15 AM,54.9,30.9,40,29.85,10.0,SE,19.6,-,N/A,,Mostly Cloudy,140,2013-04-06 11:15:00
6:35 AM,53.8,33.6,46,29.83,10.0,SSE,21.9,27.6,N/A,,Overcast,150,2013-04-06 11:35:00
6:55 AM,54.7,32.7,43,29.87,10.0,South,12.7,-,N/A,Rain,Light Rain,170,2013-04-06 11:55:00
7:15 AM,54.7,33.3,44,29.85,10.0,SSE,18.4,-,N/A,,Mostly Cloudy,160,2013-04-06 12:15:00
7:35 AM,55.4,33.1,43,29.83,10.0,SSE,19.6,27.6,N/A,,Mostly Cloudy,150,2013-04-06 12:35:00
7:55 AM,55.8,32.9,42,29.81,10.0,SSE,20.7,26.5,N/A,,Mostly Cloudy,150,2013-04-06 12:55:00
8:15 AM,56.3,32.5,41,29.80,10.0,SSE,19.6,26.5,N/A,,Mostly Cloudy,150,2013-04-06 13:15:00
8:35 AM,57.2,32.5,39,29.80,10.0,SSE,16.1,-,N/A,,Mostly Cloudy,160,2013-04-06 13:35:00
8:55 AM,58.1,32.0,37,29.79,10.0,SSE,17.3,21.9,N/A,,Scattered Clouds,160,2013-04-06 13:55:00
9:15 AM,61.7,31.5,32,29.77,10.0,South,17.3,24.2,N/A,,Clear,170,2013-04-06 14:15:00
9:35 AM,64.2,29.1,27,29.76,10.0,SSE,25.3,31.1,N/A,,Clear,160,2013-04-06 14:35:00
9:55 AM,66.6,27.7,23,29.75,10.0,South,21.9,36.8,N/A,,Clear,190,2013-04-06 14:55:00
10:15 AM,66.2,27.7,24,29.75,10.0,South,21.9,31.1,N/A,,Clear,180,2013-04-06 15:15:00
10:35 AM,66.4,27.7,23,29.74,10.0,South,23.0,33.4,N/A,,Clear,190,2013-04-06 15:35:00
10:55 AM,69.6,26.8,20,29.73,10.0,South,24.2,39.1,N/A,,Clear,190,2013-04-06 15:55:00
11:15 AM,69.4,26.6,20,29.73,10.0,South,25.3,32.2,N/A,,Clear,190,2013-04-06 16:15:00
11:35 AM,69.3,26.6,20,29.73,10.0,SSW,25.3,33.4,N/A,,Scattered Clouds,200,2013-04-06 16:35:00
11:55 AM,67.6,27.9,23,29.73,10.0,South,26.5,33.4,N/A,,Scattered Clouds,190,2013-04-06 16:55:00
12:15 PM,67.5,29.3,24,29.71,10.0,SSW,19.6,28.8,N/A,,Mostly Cloudy,200,2013-04-06 17:15:00
12:35 PM,69.8,28.9,22,29.70,10.0,South,25.3,33.4,N/A,,Scattered Clouds,180,2013-04-06 17:35:00
12:55 PM,69.1,29.5,23,29.69,10.0,SSW,21.9,31.1,N/A,,Clear,200,2013-04-06 17:55:00
1:15 PM,70.3,29.8,22,29.67,10.0,South,27.6,34.5,N/A,,Clear,190,2013-04-06 18:15:00
1:35 PM,72.0,29.7,21,29.67,10.0,SSW,28.8,33.4,N/A,,Clear,200,2013-04-06 18:35:00
1:55 PM,71.1,30.7,22,29.66,10.0,SSW,23.0,35.7,N/A,,Clear,200,2013-04-06 18:55:00
2:15 PM,69.8,32.0,25,29.65,10.0,SSW,26.5,34.5,N/A,,Scattered Clouds,200,2013-04-06 19:15:00
2:35 PM,70.0,32.2,25,29.64,10.0,SSW,23.0,32.2,N/A,,Scattered Clouds,210,2013-04-06 19:35:00
2:55 PM,72.3,31.1,22,29.63,10.0,SSW,25.3,34.5,N/A,,Scattered Clouds,200,2013-04-06 19:55:00
3:15 PM,71.6,31.8,23,29.63,10.0,South,26.5,32.2,N/A,,Clear,190,2013-04-06 20:15:00
3:35 PM,71.1,32.9,25,29.63,10.0,SSW,27.6,35.7,N/A,,Scattered Clouds,200,2013-04-06 20:35:00
3:55 PM,70.3,32.9,25,29.63,10.0,SSW,21.9,31.1,N/A,,Mostly Cloudy,210,2013-04-06 20:55:00
4:15 PM,70.0,33.8,26,29.62,10.0,SSW,17.3,-,N/A,,Overcast,200,2013-04-06 21:15:00
4:35 PM,70.2,35.1,28,29.62,10.0,SSW,19.6,25.3,N/A,,Overcast,200,2013-04-06 21:35:00
4:55 PM,70.0,35.6,28,29.62,10.0,SSW,15.0,-,N/A,,Overcast,200,2013-04-06 21:55:00
5:15 PM,70.0,37.2,30,29.62,10.0,SSW,16.1,24.2,N/A,,Overcast,200,2013-04-06 22:15:00
5:35 PM,70.2,38.7,32,29.62,10.0,SSW,16.1,23.0,N/A,,Overcast,210,2013-04-06 22:35:00
5:55 PM,70.7,39.6,32,29.62,10.0,SSW,17.3,21.9,N/A,,Overcast,210,2013-04-06 22:55:00
6:15 PM,70.7,40.3,33,29.62,10.0,SSW,15.0,21.9,N/A,,Overcast,210,2013-04-06 23:15:00
6:35 PM,70.9,40.8,34,29.62,10.0,SSW,13.8,-,N/A,,Mostly Cloudy,210,2013-04-06 23:35:00
6:55 PM,70.5,41.5,35,29.62,10.0,SSW,13.8,-,N/A,,Overcast,200,2013-04-06 23:55:00
7:15 PM,69.8,41.9,36,29.62,10.0,SSW,11.5,-,N/A,,Mostly Cloudy,200,2013-04-07 00:15:00
7:35 PM,69.1,42.4,38,29.62,10.0,SSW,12.7,-,N/A,,Mostly Cloudy,200,2013-04-07 00:35:00
7:55 PM,68.9,42.8,39,29.62,10.0,SSW,13.8,-,N/A,,Mostly Cloudy,210,2013-04-07 00:55:00
8:15 PM,68.0,43.2,41,29.63,10.0,WSW,16.1,-,N/A,,Mostly Cloudy,240,2013-04-07 01:15:00
8:35 PM,69.3,39.7,34,29.65,10.0,West,17.3,23.0,N/A,,Scattered Clouds,260,2013-04-07 01:35:00
8:55 PM,64.9,43.0,45,29.68,10.0,WNW,16.1,20.7,N/A,,Scattered Clouds,300,2013-04-07 01:55:00
9:15 PM,63.0,42.8,48,29.70,10.0,WNW,15.0,20.7,N/A,,Clear,290,2013-04-07 02:15:00
9:35 PM,62.2,42.1,48,29.71,10.0,West,15.0,20.7,N/A,,Clear,280,2013-04-07 02:35:00
9:55 PM,61.7,40.3,45,29.71,10.0,WNW,12.7,21.9,N/A,,Clear,300,2013-04-07 02:55:00
10:15 PM,61.0,40.3,46,29.73,10.0,WNW,10.4,16.1,N/A,,Clear,290,2013-04-07 03:15:00
10:35 PM,60.4,40.3,47,29.73,10.0,WNW,10.4,-,N/A,,Clear,300,2013-04-07 03:35:00
10:55 PM,59.2,40.5,50,29.74,10.0,WNW,8.1,-,N/A,,Clear,300,2013-04-07 03:55:00
11:15 PM,57.7,40.6,53,29.75,10.0,WNW,6.9,-,N/A,,Clear,300,2013-04-07 04:15:00
11:35 PM,56.8,41.0,55,29.76,10.0,NW,10.4,-,N/A,,Clear,310,2013-04-07 04:35:00
11:55 PM,55.8,41.5,59,29.76,10.0,NW,8.1,-,N/A,,Clear,310,2013-04-07 04:55:00